Location: Finkenbach
(49.5340°N, 8.9188°E)
Time: 20:56:43
(UTC+00:00)

Cosmos 1072 Rocket - Pass Details

Date: 17 June 2025
Orbit: 947 x 1009 km, 82.9° (Epoch: 16 July)

Event Time Altitude Azimuth Distance (km) Brightness Sun altitude
Rises 22:05:44 0° 350° (N) 3,651 9.3 -14.9°
Reaches altitude 10° 22:08:15 10° 352° (N) 2,695 8.2 -15.1°
Maximum altitude 22:14:25 82° 81° (E) 964 4.4 -15.4°
Enters shadow 22:18:24 23° 167° (SSE) 1,890 5.4 -15.6°
